Raton, NM

5:20 PM MDT on September 25, 2017 (GMT -0600)
Raton Municipal-Crews

Weather History for KRTN - December, 2013

Change the Weather History Date:

Monday, December 2, 2013

  Actual Average (KTAD) Record (KTAD)
Temperature  
Mean Temperature 44 °F -  
Max Temperature 63 °F 49 °F 68 °F (1956)
Min Temperature 25 °F 19 °F 2 °F (1991)
Degree Days  
Heating Degree Days 21    
Moisture  
Dew Point 19 °F    
Average Humidity 45    
Maximum Humidity 75    
Minimum Humidity 14    
Precipitation  
Precipitation 0.00 in - - ()
Sea Level Pressure  
Sea Level Pressure 29.77 in    
Wind  
Wind Speed 7 mph (North)    
Max Wind Speed 17 mph    
Max Gust Speed 24 mph    
Visibility 10 miles    
Events      
Averages and records for this station are not official NWS values.
T = Trace of Precipitation, MM = Missing Value Source: NWS Daily Summary

Daily Weather History Graph

Daily Weather History Graph

Search for Another Location

Airport or City:

Trip Planner

Search our weather history database for the weather conditions in past years. The results will help you decide how hot, cold, wet, or windy it might be!

Date:

Astronomy

Dec. 02, 2013 Rise Set
Actual Time 6:53 AM MST 4:41 PM MST
Civil Twilight 6:24 AM MST 5:10 PM MST
Nautical Twilight 5:52 AM MST 5:42 PM MST
Astronomical Twilight 5:21 AM MST 6:13 PM MST
Moon 6:21 AM MST (12/2) 4:46 PM MST (12/2)
Length of Visible Light 10h 45m
Length of Day
9h 48m
Waning Crescent, 0% of the Moon is Illuminated
Dec 2
Waning Crescent
Dec 2
New
Dec 9
First Quarter
Dec 17
Full
Dec 25
Last Quarter

Hourly Weather History & Observations

Time (MST) Temp. Windchill Dew Point Humidity Pressure Visibility Wind Dir Wind Speed Gust Speed Precip Events Conditions
12:53 AM 28.9 °F 21.1 °F 17.1 °F 61% 29.91 in 10.0 mi North 8.1 mph - N/A   Clear
1:53 AM 25.0 °F 18.1 °F 18.0 °F 75% 29.92 in 10.0 mi NE 5.8 mph - N/A   Clear
2:53 AM 30.0 °F 23.2 °F 17.1 °F 59% 29.89 in 10.0 mi North 6.9 mph - N/A   Clear
3:53 AM 27.0 °F 20.5 °F 18.0 °F 69% 29.89 in 10.0 mi NNE 5.8 mph - N/A   Clear
4:53 AM 28.0 °F 20.0 °F 18.0 °F 66% 29.90 in 10.0 mi NNE 8.1 mph - N/A   Clear
5:53 AM 26.1 °F 21.9 °F 18.0 °F 71% 29.95 in 10.0 mi NE 3.5 mph - N/A   Clear
6:53 AM 28.9 °F 22.8 °F 19.9 °F 69% 29.93 in 10.0 mi North 5.8 mph - N/A   Clear
7:53 AM 33.1 °F 27.7 °F 21.9 °F 64% 29.93 in 10.0 mi NE 5.8 mph - N/A   Clear
8:53 AM 37.9 °F - 26.1 °F 62% 29.91 in 10.0 mi Calm Calm - N/A   Clear
9:53 AM 46.0 °F 44.8 °F 21.9 °F 39% 29.87 in 10.0 mi Variable 3.5 mph - N/A   Clear
10:53 AM 50.0 °F - 23.0 °F 35% 29.82 in 10.0 mi SE 5.8 mph - N/A   Clear
11:53 AM 53.1 °F - 23.0 °F 31% 29.77 in 10.0 mi South 8.1 mph - N/A   Clear
12:53 PM 57.0 °F - 19.9 °F 24% 29.70 in 10.0 mi Variable 3.5 mph - N/A   Clear
1:53 PM 61.0 °F - 19.9 °F 21% 29.68 in 10.0 mi North 3.5 mph - N/A   Clear
2:53 PM 63.0 °F - 12.0 °F 14% 29.62 in 10.0 mi WNW 17.3 mph 24.2 mph N/A   Clear
3:53 PM 57.9 °F - 14.0 °F 18% 29.66 in 10.0 mi West 10.4 mph - N/A   Clear
4:53 PM 53.1 °F - 18.0 °F 25% 29.67 in 10.0 mi NNW 6.9 mph - N/A   Clear
5:53 PM 53.1 °F - 18.0 °F 25% 29.66 in 10.0 mi WNW 13.8 mph - N/A   Clear
6:53 PM 51.1 °F - 18.0 °F 27% 29.65 in 10.0 mi West 11.5 mph - N/A   Clear
7:53 PM 44.1 °F 39.0 °F 19.0 °F 37% 29.67 in 10.0 mi West 9.2 mph - N/A   Clear
8:53 PM 44.1 °F - 18.0 °F 35% 29.64 in 10.0 mi Calm Calm - N/A   Clear
9:53 PM 37.0 °F 32.4 °F 19.9 °F 50% 29.61 in 10.0 mi NE 5.8 mph - N/A   Clear
10:53 PM 37.9 °F 34.4 °F 19.0 °F 47% 29.59 in 10.0 mi NNE 4.6 mph - N/A   Clear
11:53 PM 35.1 °F 29.3 °F 18.0 °F 50% 29.57 in 10.0 mi NNE 6.9 mph - N/A   Clear